[[{"header":{"parameterUnit":"m.s-1","parameterCategory":1,"la1":30.2991,"la2":30.254,"lo1":-89.0895,"lo2":-89.0444,"dy":0.0017,"dx":0.0017,"nx":28,"ny":28,"refTime":"2025-01-22T09:00:00:Z","depth":0,"parameterNumber":2,"parameterNumberName":"U-component_of_WINDS"},"data":[0,0,0,0,0,0,0,0,0,0,0,0,0,0,0,0,0,0,0,0,0,0,0,0,0,0,0,0,0,0,0,0,0,0,0,0,0,0,0,0,0,0,0,0,0,0,0,0,0,0,0,0,0,0,0,0,0,0,0.9767,0.9767,0,0.9742,0.9741,0.9741,0.9746,0.9746,0.9746,0.9747,0.9717,0.9716,0.9715,0,0,0,0,0,0,0,0,0,0,0,0,0,0.9816,0.9816,0.9767,0.9767,0.9767,0.9742,0.9741,0.9741,0.9745,0.9746,0.9747,0.9747,0.9718,0.9716,0.9715,0,0,0,0,0,0,0,0,0,0,0,0,0,0.9793,0.9815,0.9767,0.9766,0.9766,0.9742,0.9741,0.9741,0.9745,0.9746,0.9747,0.9747,0.9718,0.9716,0.9714,0.9689,0,0,0.9709,0.9708,0,0,0,0,0,0,0,0,0.9795,0.9792,0.9766,0.9766,0.9766,0.9748,0.9748,0.9724,0.9745,0.9753,0.9747,0.9748,0.9726,0.9724,0.9718,0.9688,0.9687,0.9709,0.9708,0.9707,0.9706,0,0,0,0,0,0,0,0.9796,0.9793,0.9757,0.9766,0.9766,0.9765,0.9763,0.9743,0.9736,0.9752,0.9753,0.975,0.9726,0.9719,0.9717,0.9686,0.9709,0.9707,0.9706,0.9705,0.9634,0.9633,0,0,0,0,0,0,0.9799,0.9794,0.9758,0.9756,0.9782,0.9764,0.9761,0.9753,0.9736,0.9735,0.9749,0.975,0.9722,0.9719,0.9716,0.9685,0.9707,0.9705,0.9704,0.9635,0.9634,0.9633,0,0,0,0,0,0,0.98,0.9796,0.9759,0.9775,0.9771,0.9763,0.9753,0.9752,0.9745,0.9734,0.9732,0.9744,0.9723,0.9718,0.9696,0.9684,0.9704,0.9703,0.9636,0.9635,0.9633,0.9623,0,0,0,0,0,0,0.9801,0.9796,0.9787,0.9775,0.977,0.9741,0.9752,0.9751,0.9742,0.9743,0.9728,0.9726,0.9723,0.9699,0.9694,0.9682,0.9701,0.9637,0.9635,0.9634,0.9624,0.9622,0.9619,0,0,0,0,0,0.9803,0.9785,0.9787,0.9782,0.9759,0.974,0.9737,0.9734,0.9741,0.9732,0.9725,0.9727,0.9686,0.9696,0.9691,0.9678,0.9638,0.9636,0.9634,0.9626,0.9622,0.9619,0,0,0,0,0,0,0.9794,0.9783,0.9785,0.9763,0.9752,0.9741,0.9729,0.973,0.9717,0.9718,0.9714,0.9711,0.9688,0.9681,0.9692,0.9653,0.9663,0.966,0.9658,0.9655,0.9652,0.9654,0.97,0,0,0,0,0,0.979,0.9777,0.9767,0.9748,0.9743,0.9737,0.9728,0.9727,0.9716,0.9711,0.9702,0.969,0.9675,0.9665,0.965,0.9624,0.962,0.9612,0.961,0.9608,0.9605,0.959,0.9586,0.9627,0.9627,0.9627,0,0,0.978,0.9772,0.9764,0.9746,0.9738,0.9723,0.9733,0.9717,0.9705,0.9708,0.9687,0.968,0.9666,0.9642,0.9631,0.9635,0.9593,0.9605,0.9604,0.9602,0.9587,0.9583,0.958,0.9626,0.9626,0.9626,0,0,0.9755,0.9748,0.9731,0.9723,0.9711,0.9707,0.9703,0.9692,0.9688,0.9666,0.9668,0.9654,0.9627,0.9617,0.9609,0.958,0.9581,0.9575,0.9561,0.9547,0.9543,0.954,0.9529,0.9525,0.9573,0.9573,0.9573,0,0.9744,0.9723,0.9722,0.9706,0.9697,0.9701,0.9683,0.9675,0.9658,0.9651,0.9657,0.9624,0.9615,0.9588,0.9581,0.9574,0.9569,0.9576,0.9544,0.9541,0.9538,0.9527,0.9523,0.9572,0.9572,0.9572,0.9572,0,0.971,0.9695,0.9683,0.9668,0.9658,0.9641,0.9636,0.9626,0.9626,0.9621,0.9599,0.9588,0.9571,0.9565,0.9564,0.9537,0.954,0.9545,0.9555,0.9534,0.9523,0.9519,0.9571,0.9571,0.9571,0.9571,0,0,0.9677,0.9663,0.9658,0.9651,0.9638,0.9626,0.9609,0.9593,0.9584,0.9573,0.9557,0.9535,0.954,0.953,0.9528,0.9515,0.9492,0.9521,0.9521,0.9515,0.9461,0.9456,0.9452,0.9493,0.9492,0.9492,0.9461,0,0.965,0.9621,0.962,0.9593,0.9578,0.9581,0.9566,0.9556,0.9551,0.9537,0.9532,0.9516,0.9523,0.9517,0.9505,0.9497,0.9481,0.95,0.9477,0.9477,0.948,0.9446,0.9442,0.9414,0.9458,0.9457,0.9456,0,0.9614,0.9603,0.9574,0.9564,0.9557,0.9544,0.9529,0.9517,0.9505,0.9502,0.9492,0.9492,0.9473,0.9484,0.9457,0.947,0.9461,0.9456,0.9455,0.9452,0.9464,0.9441,0.9405,0.94,0.945,0.9451,0.9451,0,0.9592,0.957,0.955,0.9544,0.9531,0.9521,0.9515,0.9504,0.9495,0.9481,0.9475,0.946,0.9451,0.9438,0.9434,0.9443,0.9407,0.9418,0.9402,0.9403,0.9394,0.9394,0.9354,0.939,0.939,0.939,0.939,0,0.9561,0.9544,0.954,0.9527,0.9507,0.9506,0.9485,0.948,0.947,0.9456,0.9457,0.9444,0.9439,0.9424,0.942,0.9398,0.9394,0.939,0.9389,0.9389,0.939,0.9383,0.9384,0.9389,0.9389,0.9389,0.9389,0,0.9533,0.953,0.9508,0.9498,0.9495,0.948,0.9471,0.9458,0.9454,0.9436,0.9431,0.9424,0.9407,0.9401,0.938,0.9377,0.9351,0.9352,0.9355,0.9355,0.9339,0.934,0.9292,0.9285,0.9327,0.9326,0.9326,0,0.9513,0.9499,0.9488,0.9479,0.9473,0.9458,0.9449,0.9447,0.9437,0.9423,0.9411,0.9395,0.9381,0.9353,0.9345,0.9328,0.9328,0.9312,0.9325,0.9326,0.9326,0.9327,0.9325,0.9309,0.9309,0.9309,0.9308,0,0.9477,0.9476,0.9463,0.945,0.9439,0.9428,0.9417,0.9409,0.9406,0.9394,0.9377,0.9366,0.9345,0.9328,0.9311,0.9303,0.9305,0.9305,0.93,0.9299,0.9301,0.9299,0.9347,0.9305,0.9306,0.9306,0.9306,0.9306,0.9451,0.9439,0.9429,0.9415,0.9407,0.9397,0.9385,0.9379,0.9365,0.9348,0.9348,0.9329,0.9317,0.9295,0.9287,0.9271,0.9275,0.9269,0.9267,0.9265,0.9263,0.9305,0.9268,0.9268,0.9268,0.9268,0.9268,0,0.9415,0.9409,0.9395,0.9381,0.9369,0.9373,0.9362,0.9351,0.9335,0.9324,0.9311,0.9291,0.9274,0.9265,0.9248,0.9237,0.9237,0.9233,0.9233,0.9231,0.9261,0.9266,0.9233,0.9233,0.9233,0.9233,0.9233,0.9233,0.9394,0.9374,0.9372,0.9347,0.9341,0.9324,0.9317,0.9307,0.9298,0.9276,0.9263,0.9258,0.9247,0.923,0.9214,0.9212,0.9205,0.92,0.9198,0.9225,0.9229,0.9232,0.9237,0.9199,0.9198,0.9169,0.9168,0.9168]},{"header":{"parameterUnit":"m.s-1","parameterCategory":1,"la1":30.2991,"la2":30.254,"lo1":-89.0895,"lo2":-89.0444,"dy":0.0017,"dx":0.0017,"nx":28,"ny":28,"refTime":"2025-01-22T09:00:00:Z","depth":0,"parameterNumber":3,"parameterNumberName":"V-component_of_WINDS"},"data":[0,0,0,0,0,0,0,0,0,0,0,0,0,0,0,0,0,0,0,0,0,0,0,0,0,0,0,0,0,0,0,0,0,0,0,0,0,0,0,0,0,0,0,0,0,0,0,0,0,0,0,0,0,0,0,0,0,0,0.2727,0.2727,0,0.2694,0.2693,0.2693,0.2654,0.2654,0.2653,0.2652,0.2618,0.2617,0.2617,0,0,0,0,0,0,0,0,0,0,0,0,0,0.2757,0.2756,0.2727,0.2727,0.2726,0.2694,0.2693,0.2693,0.2654,0.2654,0.2653,0.2652,0.2618,0.2617,0.2617,0,0,0,0,0,0,0,0,0,0,0,0,0,0.2736,0.2756,0.2727,0.2703,0.2701,0.2694,0.2693,0.2693,0.2654,0.2654,0.2653,0.2652,0.2618,0.2617,0.2617,0.2631,0,0,0.2615,0.2615,0,0,0,0,0,0,0,0,0.2737,0.2735,0.2707,0.2705,0.2702,0.2677,0.2691,0.2672,0.2655,0.2672,0.2652,0.2651,0.2638,0.2636,0.2631,0.2629,0.2628,0.2615,0.2615,0.2614,0.2614,0,0,0,0,0,0,0,0.2738,0.2736,0.2714,0.2707,0.2704,0.2694,0.269,0.2687,0.266,0.267,0.2667,0.2664,0.2637,0.2632,0.263,0.2627,0.2615,0.2614,0.2614,0.2614,0.2634,0.2635,0,0,0,0,0,0,0.2744,0.2737,0.2715,0.2713,0.2718,0.2694,0.2689,0.2686,0.266,0.2655,0.2665,0.2662,0.2634,0.2631,0.2629,0.2644,0.2614,0.2614,0.2613,0.2633,0.2634,0.2635,0,0,0,0,0,0,0.2744,0.2742,0.2716,0.2724,0.272,0.2694,0.2691,0.2686,0.2681,0.2656,0.2651,0.2665,0.2633,0.263,0.2631,0.2642,0.2614,0.2613,0.2632,0.2634,0.2635,0.2673,0,0,0,0,0,0,0.2745,0.2742,0.2748,0.2725,0.272,0.2719,0.2691,0.2686,0.2681,0.2677,0.2655,0.2651,0.2632,0.2632,0.263,0.2641,0.2613,0.2631,0.2633,0.2634,0.2671,0.2676,0.268,0,0,0,0,0,0.2747,0.276,0.2748,0.2746,0.2726,0.2719,0.2717,0.2695,0.2682,0.2687,0.267,0.2651,0.2641,0.2632,0.263,0.264,0.263,0.2632,0.2634,0.2669,0.2675,0.268,0,0,0,0,0,0,0.2785,0.2756,0.2743,0.2749,0.2737,0.2713,0.2719,0.2702,0.2693,0.269,0.2663,0.2659,0.2663,0.2651,0.2642,0.2652,0.2633,0.2635,0.266,0.2665,0.267,0.2672,0.2612,0,0,0,0,0,0.2794,0.2791,0.2766,0.2774,0.2769,0.2745,0.2741,0.2725,0.2712,0.2706,0.269,0.2677,0.2671,0.2667,0.266,0.2669,0.2663,0.2675,0.2679,0.2683,0.2685,0.2689,0.2693,0.2642,0.2642,0.2642,0,0,0.2812,0.2797,0.2796,0.2781,0.277,0.2768,0.2741,0.2739,0.2737,0.2706,0.2706,0.2693,0.2677,0.2682,0.2683,0.2673,0.2698,0.2686,0.2689,0.2689,0.2691,0.2696,0.27,0.2643,0.2643,0.2643,0,0,0.2845,0.2833,0.2838,0.2828,0.2811,0.2795,0.2796,0.2775,0.2765,0.2765,0.2741,0.2738,0.2728,0.2717,0.2711,0.274,0.2722,0.2738,0.2761,0.2765,0.2769,0.2773,0.2783,0.2787,0.274,0.274,0.274,0,0.2871,0.2867,0.2843,0.2843,0.2837,0.2809,0.2814,0.2804,0.2786,0.2782,0.2771,0.2757,0.2745,0.2746,0.2754,0.2749,0.2749,0.274,0.2771,0.2774,0.2777,0.2786,0.279,0.2742,0.2742,0.2741,0.2741,0,0.2899,0.2896,0.2902,0.2885,0.288,0.2883,0.2859,0.2856,0.2841,0.2826,0.2826,0.2809,0.2798,0.2798,0.2783,0.2797,0.2791,0.2776,0.2755,0.2784,0.2793,0.2796,0.2745,0.2744,0.2743,0.2743,0,0,0.2955,0.2925,0.2928,0.292,0.2899,0.2897,0.2898,0.2887,0.2885,0.2874,0.2874,0.2866,0.2851,0.2844,0.2827,0.283,0.2854,0.2814,0.2813,0.2822,0.2869,0.2881,0.2886,0.2842,0.2843,0.2843,0.2871,0,0.2984,0.2985,0.2964,0.297,0.2967,0.294,0.2941,0.2928,0.2914,0.291,0.2894,0.2889,0.287,0.2865,0.2867,0.2851,0.2863,0.2849,0.2842,0.2842,0.2847,0.289,0.2903,0.293,0.2874,0.2874,0.2875,0,0.3019,0.3009,0.3016,0.2995,0.2993,0.2994,0.2982,0.2978,0.2963,0.2953,0.2944,0.2925,0.2925,0.2906,0.2904,0.2894,0.289,0.2882,0.2882,0.2881,0.286,0.289,0.2938,0.2942,0.288,0.2879,0.2879,0,0.306,0.3048,0.305,0.3044,0.302,0.3021,0.3011,0.2995,0.299,0.298,0.2976,0.2966,0.2961,0.2953,0.2932,0.292,0.2933,0.2912,0.2924,0.2924,0.2928,0.2928,0.2975,0.2925,0.2925,0.2925,0.2925,0,0.3095,0.31,0.3068,0.307,0.3074,0.3049,0.3054,0.3041,0.3028,0.3026,0.3001,0.3,0.2972,0.2968,0.2951,0.2952,0.295,0.2941,0.2936,0.2943,0.2944,0.294,0.2938,0.2926,0.2926,0.2926,0.2925,0,0.3141,0.312,0.3121,0.3098,0.3092,0.3096,0.3076,0.3076,0.3061,0.3059,0.3057,0.3032,0.3026,0.3004,0.2991,0.298,0.2986,0.2978,0.2992,0.2989,0.3002,0.3001,0.3049,0.3053,0.3,0.3001,0.3001,0,0.3165,0.3168,0.3145,0.3142,0.3133,0.3129,0.3123,0.3099,0.3095,0.3078,0.308,0.3071,0.3063,0.3054,0.3035,0.3025,0.3016,0.3033,0.3014,0.3021,0.3016,0.3016,0.3016,0.3037,0.3038,0.3039,0.3039,0,0.3209,0.3199,0.3192,0.3182,0.3177,0.3167,0.3157,0.3156,0.3129,0.3125,0.3118,0.3111,0.3099,0.3091,0.3078,0.3067,0.3049,0.3045,0.3047,0.3054,0.3062,0.3058,0.3003,0.3044,0.3044,0.3043,0.3043,0.3043,0.3245,0.3247,0.3231,0.3224,0.3213,0.3204,0.3203,0.3187,0.3181,0.3169,0.3155,0.315,0.3134,0.3116,0.3106,0.3101,0.3091,0.3094,0.3095,0.3096,0.31,0.3063,0.3099,0.3099,0.3098,0.3098,0.3098,0,0.3288,0.3277,0.3271,0.3257,0.3252,0.3235,0.3222,0.3219,0.3215,0.3202,0.3194,0.3186,0.3178,0.3158,0.3148,0.3148,0.3139,0.3146,0.3146,0.3143,0.3109,0.3108,0.3153,0.3153,0.3153,0.3153,0.3153,0.3153,0.331,0.3312,0.33,0.3295,0.3283,0.3278,0.3272,0.3263,0.3253,0.3245,0.3238,0.3226,0.321,0.3198,0.319,0.3184,0.3181,0.3191,0.3183,0.3151,0.3146,0.3141,0.314,0.3191,0.3191,0.3217,0.3218,0.3218]}]]